WB7CYS Weather Reports


Display with metric or nautical units.
time (UTC)temp
F
wind
direction
speed
MPH
gust
MPH
rain 1hr
in
rain 24hr
in
rain mn
in
humidity
%
barometer
mb
20260903013004 61 159 5.0 10.0 0.00 0.00 0.00 70 1006.3
20260903011503 62 153 10.0 14.0 0.00 0.00 0.00 67 1006.1
20260903010002 63 193 12.0 18.0 0.00 0.00 0.00 63 1005.9
20260903004501 64 192 7.0 11.0 0.00 0.00 0.00 64 1005.9
20260903003101 64 233 8.0 16.0 0.00 0.00 0.00 60 1005.7
20260903001559 67 248 16.0 22.0 0.00 0.00 0.00 53 1005.5
20260903000059 68 242 12.0 20.0 0.00 0.00 0.00 46 1005.2
20260902234606 68 257 17.0 27.0 0.00 0.00 0.00 45 1005.0
20260902233057 70 259 14.0 21.0 0.00 0.00 0.00 43 1004.8
20260902231600 70 281 21.0 31.0 0.00 0.00 0.00 41 1004.6
20260902230155 70 280 27.0 35.0 0.00 0.00 0.00 41 1004.2
20260902224553 71 242 15.0 32.0 0.00 0.00 0.00 39 1004.2
20260902223101 72 228 13.0 22.0 0.00 0.00 0.00 39 1004.0
20260902221551 73 239 17.0 30.0 0.00 0.00 0.00 35 1003.7
20260902220050 75 270 8.0 14.0 0.00 0.00 0.00 34 1003.3
20260902214549 75 271 0.0 5.0 0.00 0.00 0.00 34 1003.0
20260902213045 75 356 3.0 7.0 0.00 0.00 0.00 36 1003.1
20260902211542 74 72 2.0 6.0 0.00 0.00 0.00 37 1003.5
20260902210039 73 57 4.0 7.0 0.00 0.00 0.00 39 1003.6
20260902204538 73 85 3.0 7.0 0.00 0.00 0.00 39 1003.7
20260902203035 73 86 1.0 7.0 0.00 0.00 0.00 39 1003.9
20260902201532 72 32 3.0 9.0 0.00 0.00 0.00 40 1004.1
20260902200033 71 341 1.0 6.0 0.00 0.00 0.00 41 1004.4
20260902194531 71 34 3.0 8.0 0.00 0.00 0.00 41 1004.4
20260902193030 72 326 8.0 11.0 0.00 0.00 0.00 41 1004.6
20260902191527 72 46 3.0 7.0 0.00 0.00 0.00 40 1004.8
20260902190027 72 198 2.0 6.0 0.00 0.00 0.00 41 1005.1
20260902184521 70 205 2.0 8.0 0.00 0.00 0.00 43 1005.4
20260902183021 69 84 1.0 9.0 0.00 0.00 0.00 45 1005.5
20260902181515 68 351 6.0 12.0 0.00 0.00 0.00 46 1005.7
20260902180013 68 281 3.0 10.0 0.00 0.00 0.00 46 1005.8
20260902174509 67 70 1.0 4.0 0.00 0.00 0.00 48 1006.0
20260902173009 68 285 3.0 6.0 0.00 0.00 0.00 48 1006.2
20260902171505 67 278 3.0 6.0 0.00 0.00 0.00 50 1006.3
20260902170003 65 215 3.0 6.0 0.00 0.00 0.00 52 1006.5
20260902164601 64 210 3.0 8.0 0.00 0.00 0.00 53 1006.5
20260902163059 64 247 4.0 7.0 0.00 0.00 0.00 54 1006.4
20260902161600 64 266 1.0 4.0 0.00 0.00 0.00 54 1006.4
20260902160115 64 218 2.0 4.0 0.00 0.00 0.00 55 1006.7
20260902154559 62 239 1.0 4.0 0.00 0.00 0.00 57 1006.9
20260902153057 60 87 2.0 3.0 0.00 0.00 0.00 63 1007.0
20260902151600 57 86 3.0 4.0 0.00 0.00 0.00 69 1007.2
20260902150052 57 284 0.0 0.0 0.00 0.00 0.00 66 1007.4
20260902144551 57 284 0.0 0.0 0.00 0.00 0.00 68 1007.5
20260902143050 57 284 0.0 2.0 0.00 0.00 0.00 69 1007.5
20260902141553 57 283 0.0 1.0 0.00 0.00 0.00 69 1007.3
20260902140046 0 0.0 0.0 0.00 0.00 0.00 1007.3
20260902134541 0 0.0 0.0 0.00 0.00 0.00 1007.4
20260902133046 0 0.0 0.0 0.00 0.00 0.00 1007.3
20260902131535 0 0.0 0.0 0.00 0.00 0.00 1007.4
20260902130027 0 0.0 0.0 0.00 0.00 0.00 1007.0
20260902124524 0 0.0 0.0 0.00 0.00 0.00 1007.0
20260902123024 0 0.0 0.0 0.00 0.00 0.00 1007.1
20260902121514 0 0.0 0.0 0.00 0.00 0.00 1007.0
20260902120010 0 0.0 0.0 0.00 0.00 0.00 1006.6
20260902114506 0 0.0 0.0 0.00 0.00 0.00 1006.5
20260902113002 0 0.0 0.0 0.00 0.00 0.00 1006.9
20260902111601 0 0.0 0.0 0.00 0.00 0.00 1006.9
20260902104553 0 0.0 0.0 0.00 0.00 0.00 1007.6
20260902103043 0 0.0 0.0 0.00 0.00 0.00 1007.5
20260902101541 0 0.0 0.0 0.00 0.00 0.00 1007.0
20260902100036 0 0.0 0.0 0.00 0.00 0.00 1006.9
20260902094538 0 0.0 0.0 0.00 0.00 0.00 1006.7
20260902093026 60 234 5.0 7.0 0.00 0.00 0.00 64 1006.8
20260902091523 60 233 3.0 9.0 0.00 0.00 0.00 64 1007.1
20260902090022 60 236 7.0 12.0 0.00 0.00 0.00 63 1007.3
20260902084524 61 233 10.0 12.0 0.00 0.00 0.00 63 1007.1
20260902083019 61 248 6.0 13.0 0.00 0.00 0.00 62 1007.0
20260902081516 61 211 6.0 11.0 0.00 0.00 0.00 61 1007.1
20260902080015 62 225 10.0 16.0 0.00 0.00 0.00 60 1007.2
20260902074514 62 215 9.0 14.0 0.00 0.00 0.00 60 1007.2
20260902073010 62 239 9.0 15.0 0.00 0.00 0.00 59 1007.0
20260902071507 62 252 7.0 12.0 0.00 0.00 0.00 59 1007.0
20260902070006 62 248 9.0 11.0 0.00 0.00 0.00 58 1006.8
20260902064502 63 242 9.0 13.0 0.00 0.00 0.00 57 1006.6
20260902063105 63 219 6.0 11.0 0.00 0.00 0.00 55 1006.4
20260902061612 64 224 9.0 13.0 0.00 0.00 0.00 54 1006.4
20260902060056 64 225 8.0 13.0 0.00 0.00 0.00 52 1006.2
20260902054554 65 245 12.0 16.0 0.00 0.00 0.00 51 1006.2
20260902053053 64 245 8.0 12.0 0.00 0.00 0.00 51 1006.1
20260902051550 65 246 10.0 13.0 0.00 0.00 0.00 48 1005.9
20260902050051 67 239 10.0 18.0 0.00 0.00 0.00 46 1005.6
20260902044549 67 246 10.0 14.0 0.00 0.00 0.00 45 1005.5
20260902043054 67 248 8.0 11.0 0.00 0.00 0.00 45 1005.3
20260902041548 68 257 8.0 12.0 0.00 0.00 0.00 43 1004.9
20260902040046 69 226 3.0 5.0 0.00 0.00 0.00 43 1004.5
20260902034546 69 256 3.0 9.0 0.00 0.00 0.00 42 1004.3
20260902033102 69 255 2.0 5.0 0.00 0.00 0.00 42 1004.0
20260902031545 69 280 2.0 4.0 0.00 0.00 0.00 42 1003.7
20260902030044 71 239 3.0 12.0 0.00 0.00 0.00 39 1003.4
20260902024543 71 285 7.0 11.0 0.00 0.00 0.00 38 1003.2
20260902023049 73 290 9.0 11.0 0.00 0.00 0.00 38 1002.7
20260902021543 74 283 8.0 11.0 0.00 0.00 0.00 36 1002.7
20260902020042 76 283 4.0 5.0 0.00 0.00 0.00 36 1002.7
20260902014542 77 298 5.0 6.0 0.00 0.00 0.00 35 1002.7